Regional Weather Roundup
Issued by NWS Wakefield, VA

Home | Current Version | Previous Version | Text Only | Print | Product List | Glossary Off
Versions: 1 2 3 4 5 6 7 8 9 10 11 12 13 14 15 16 17 18 19 20 21 22 23 24 25 26 27 28

000
ASUS41 KAKQ 220815
RWRAKQ

REGIONAL WEATHER ROUNDUP
NATIONAL WEATHER SERVICE WAKEFIELD VA
300 AM EST WED FEB 22 2017

Note: "fair" indicates few or no clouds below 12,000 feet with no
significant weather and/or obstructions to visibility. * = Denotes
station may not report precipitation (e.g., rain,snow,etc.),
thunder or fog.

VAZ042-051-052>054-056-220900-
NORTHERN VIRGINIA

CITY           SKY/WX    TMP DP  RH WIND       PRES   REMARKS
WASH NATIONAL  CLOUDY    46  40  79 S8        30.05F
DULLES         CLOUDY    46  37  71 S6        30.03F
FORT BELVOIR   MOCLDY    45  38  75 S3        30.04F
QUANTICO       PTCLDY    44  42  93 S7        30.07F
FREDERICKSBRG* PTCLDY    45  40  81 CALM      30.05F
STAFFORD*      MOCLDY    44  39  82 S3        30.09F
WARRENTON      MOCLDY    49  37  63 S7        30.03F
CULPEPER*      CLOUDY    49  40  72 S6        30.04F
MANASSAS*      MOCLDY    45  38  76 S5        30.04F
LEESBURG*      CLOUDY    45  41  87 MISG      30.04F
WINCHESTER     CLOUDY    43  36  75 S3        30.00S
FRONT ROYAL*   CLOUDY    46  37  71 CALM      29.99F
LURAY*         CLOUDY    52  41  66 SW6       30.00S
$$

VAZ048-049-060>072-079>083-220900-
CENTRAL AND SOUTH CENTRAL VIRGINIA

CITY           SKY/WX    TMP DP  RH WIND       PRES   REMARKS
RICHMOND       CLOUDY    42  39  89 S3        30.06F
CHESTERFIELD*  FAIR      39  25  56 S3        30.08F
PETERSBURG*    PTCLDY    36  35  96 CALM      30.07F
HANOVER        PTCLDY    40  36  86 S5        30.06F
TAPPAHANNOCK*  PTCLDY    41  39  93 CALM      30.07S
QUINTON*       FAIR      40  40 100 MISG      30.06F
CHARLOTTSVILLE CLOUDY    50  37  61 S10       30.02F
GORDONSVILLE*  MOSUNNY   46  39  78 SW3       30.03F
ORANGE*        PTCLDY    46  37  71 SE6       30.04F
LOUISA*        PTCLDY    48  43  81 CALM      30.03F
BUMPASS*       FAIR      44  39  83 CALM      30.05F
FARMVILLE*     PTCLDY    41  38  89 CALM      30.04F
CREWE*         FAIR      39  39 100 CALM      30.05F
FORT PICKETT*  FAIR      41  38  88 CALM      30.06F
CHASE CITY*    PTSUNNY   45  44  95 CALM      30.05F
CLARKSVILLE*   CLOUDY    46  45  93 CALM      30.05F
SOUTH HILL*    CLOUDY    44  43  96 CALM      30.11F
LAWRENCEVILLE* CLOUDY    45  42  91 CALM      30.06F
EMPORIA*       MOCLDY    41  41 100 NE3       30.08F
$$

VAZ088>098-220900-
SOUTHEAST VIRGINIA

CITY           SKY/WX    TMP DP  RH WIND       PRES   REMARKS
NORFOLK        CLOUDY    48  45  89 S3        30.07F
VIRGINIA BEACH CLOUDY    46  44  93 CALM      30.07F
NORFOLK NAVAL  MOCLDY    46  43  89 CALM      30.09S
WEST POINT*    PTCLDY    42  40  93 CALM      30.08F
SALUDA*        FAIR      41  41  99 CALM      30.07F
NEWPORT NEWS   PTCLDY    42  40  92 CALM      30.07F
LANGLEY AFB    CLOUDY    43  42  96 CALM      30.07F
FORT EUSTIS    PTCLDY    44  40  85 CALM      30.05F
WILLIAMSBURG*  PTCLDY    45  43  93 CALM      30.08F
HR EXEC AP*    FAIR      41  37  87 CALM      30.06S
FRANKLIN*      CLOUDY    41  39  92 CALM      30.08S
US460-WAKEFLD  CLOUDY    43  41  93 CALM      30.07F
$$

VAZ020-022-025-037-045-220900-
WEST CENTRAL AND SOUTHWEST VIRGINIA

CITY           SKY/WX    TMP DP  RH WIND       PRES   REMARKS
STAUNTON*      RAIN      47  42  83 S6        30.03F
WAYNESBORO*    CLOUDY    47  42  81 SW6       30.02F
HOT SPRINGS VA DRIZZLE   45  36  70 SW10      30.03F
LYNCHBURG      PTCLDY    42  36  79 CALM      30.05F
DANVILLE       CLOUDY    45  41  86 N3        30.04F
SOUTH BOSTON*  CLOUDY    42  41  95 CALM      30.05F
MARTINSVILLE   PTCLDY    40  37  87 CALM      30.06F
ROANOKE        CLOUDY    50  38  63 E3        30.06F
BLACKSBURG     CLOUDY    48  40  75 CALM      30.07F
DUBLIN*        CLOUDY    47  42  82 CALM      30.05F
MARION*        CLOUDY    50  41  71 NE6       30.04F
HILLSVILLE*    PTCLDY    47  39  73 CALM      30.02F
RICHLANDS*     CLOUDY    51  43  74 SE8       29.99F
WISE*          CLOUDY    54  43  66 CALM      30.00F
ABINGDON*      CLOUDY    55  42  61 E8        29.99F
$$

MDZ021>025-VAZ099-100-220900-
SOUTHERN MARYLAND AND THE DELMARVA PENINSULA

CITY           SKY/WX    TMP DP  RH WIND       PRES   REMARKS
PATUXENT RIVER CLOUDY    43  42  97 S5        30.06F
BAY BRIDGE APT CLOUDY    45  39  81 S7        30.06F
LEONARDTOWN    CLOUDY    43  37  81 CALM      30.07F
DOVER          CLOUDY    40  40 100 SE5       30.06F
GEORGETOWN     NOT AVBL
EASTON         MOCLDY    42  37  80 S3        30.09F
CAMBRIDGE      NOT AVBL
SALISBURY      CLOUDY    39  37  92 CALM      30.07F
OCEAN CITY     CLOUDY    40  37  89 CALM      30.08F
WALLOPS ISLAND CLOUDY    40  40 100 CALM      30.08F
ACCOMACK*      MOCLDY    42  41  96 CALM      30.07F
$$

NCZ012>017-030>032-220900-
NORTH CENTRAL AND EASTERN NORTH CAROLINA

CITY           SKY/WX    TMP DP  RH WIND       PRES   REMARKS
ROANOKE RAPIDS CLOUDY    43  43 100 CALM      30.06F
RALEIGH        MOCLDY    53  47  79 SE3       30.04F
ELIZABETH CITY FOG       45  45 100 CALM      30.08S VSB 1/2
AHOSKIE*         N/A     42  41  97 CALM      30.06F
EDENTON*       PTCLDY    46  44  92 CALM      30.08F FOG
CURRITUCK*     PTCLDY    46  46 100 CALM      30.08F FOG
KILL DEVIL HLS NOT AVBL
MANTEO         PTCLDY    53  49  86 S6        30.08F
CAPE HATTERAS  PTCLDY    55  48  77 E6        30.07F
TARBORO*       NOT AVBL
GOLDSBORO      PTCLDY    47  47 100 E6        30.03F
WASHINGTON     CLOUDY    45  44  97 E3        30.07F
GREENVILLE     MOCLDY    45  45 100 CALM      30.08F
NEW BERN       PTCLDY    46  46 100 CALM      30.07F FOG
WILMINGTON     PTCLDY    50  49  96 NE3       30.04F
$$

VAZ048-220900-
ELSEWHERE

CITY           SKY/WX    TMP DP  RH WIND       PRES   REMARKS
HARRISBURG PA  CLOUDY    43  36  76 E3        30.03F
BALTIMORE      CLOUDY    44  39  82 CALM      30.05F
ANNAPOLIS      CLOUDY    44  41  89 S5        30.05F
ANDREWS AFB    CLOUDY    44  37  77 S6        30.03F
PHILADELPHIA   CLOUDY    42  36  79 S3        30.07F
HENDERSON NC   CLOUDY    48  43  83 CALM      30.05F
GREENSBORO     LGT RAIN  51  50  96 NW3       30.03F FOG
ROCKY MOUNT    CLOUDY    48  46  93 CALM      30.06F
$$

VAZ100-220900-
MARINE

STATION/POSITION TIME  TEMP    WIND        PRES    WAVE   SWELL
                       AIR SEA DIR/SP/G            HT/PER HT/PER
                 (UTC) (F)     (DEG/KT/KT) (MB)    (FT/S) (FT/S)
CAPE MAY NJ      0748   44 42  150/  6/  8 1017.8F
LEWES DE         0748   43 42  170/  5/  7 1018.2F
OCEAN-CITY-INLET 0748   44 43  200/  3/  3 1018.8F
WACHAPREAGUE VA  0748   47 49   CALM  /  2 1018.4F
THOMAS POINT MD  0800   43 43  180/  8/  9   N/A
GOOSES REEF MD   0800   44 42  180/  8/ 10 1018.5    1
COVE POINT MD    0748   43     190/  8/  9 1018.5F
SOLOMONS ISLAND  0748   43 43  130/  5/  6   N/A
BISHOPS HEAD MD  0748   44 46  150/  5/  6 1018.4F
PINEY POINT MD   0748          170/  4/  5   N/A
POTOMAC MD       0800   44 45  170/  4/  6 1017.2    0
CAMBRIDGE MD     0748   43 42  170/  3/  5 1017.3F
LEWISETTA VA     0748   44 47  150/  2/  3 1017.9F
RAPPAHANNOCK LGT 0748          230/  1/  2 1018.8F
YORK RVR RNG VA  0748   46     170/  3/  3 1017.6F
YORKTOWN VA      0748   45 46  240/  1/  1 1018.0F
JAMESTOWN VA     0800   46 50   CALM  /  2   N/A     0
DOMINION TERM VA 0748   47      50/  1/  2 1018.4F
KIPTOPEKE VA     0748      46  160/  5/  6   N/A
CHES BAY BRIDGE  0748   49 46  140/  3/  5 1018.2F
CAPE HENRY VA    0748   49     150/  8/ 10   N/A
WILLOUBY STN VA  0748   47      40/  2/  2 1019.1F
S CRANEY ISL VA  0748   49     170/  3/  4 1018.1F
CAPE HENRY BUOY  0742      48                N/A     3/ 8
OFFSHORE WE BUOY 0751      47                N/A     4/ 9
64NM E OF VA BCH 0750   55 53  120/  4/  4 1018.4F   4/ 9   3/ 9
DUCK PIER NC     0748   49 49  150/  9/ 10 1017.6F
44100 DUCK FRF   0735      48                N/A     4/ 7
44056 DUCK FRF   0730      48                N/A     4/ 8
OREGON INLET NC  0748          130/  5/  6   N/A
HATTERAS NC      0748   61 58   90/  4/  6 1018.0F
DIAMOND SHLS NC  0750   63 74  130/  6/  8 1018.6F   3/ 8   3/ 8
CAPE LOOKOUT NC  0800   62      80/  7/  7 1017.4F
$$




USA.gov is the U.S. government's official web portal to all federal, state and local government web resources and services.